Location: *
(43.5667°N, 13.3667°E)
Time: 00:53:33
(UTC+00:00)

Daily predictions for brighter satellites

Satellite Brightness Start Highest point End
(mag) Time Altitude Azimuth Time Altitude Azimuth Time Altitude Azimuth
ATLAS 2AS CENTAUR R/B 4.0 02:52:20 37° NNE 02:52:20 37° NNE 02:56:51 10° NNE
COSMOS 2455 3.7 03:06:03 46° ESE 03:06:03 46° ESE 03:11:28 10° NE
Cosmos 2074 Rocket 4.4 03:14:15 10° S 03:20:18 58° E 03:26:22 10° NNE
SL-4 R/B 4.4 03:31:08 19° ENE 03:31:08 19° ENE 03:32:32 10° E
Lacrosse 5 4.0 03:33:28 18° NNE 03:33:28 18° NNE 03:35:11 10° NE
Cosmos 2228 Rocket 4.4 03:33:36 38° E 03:33:36 38° E 03:37:04 10° SSE
Meteor 2-6 Rocket 4.5 03:33:44 59° NE 03:34:17 63° ENE 03:39:46 10° SSE
ATLAS 3B R/B 3.2 03:36:31 47° SSW 03:36:31 47° SSW 03:42:02 10° SSE
BREEZE M DEB (TANK) 4.2 03:21:40 10° SW 03:35:08 51° SSE 03:38:57 10° ENE
CZ-4C R/B 3.6 03:47:08 25° N 03:47:08 25° N 03:50:26 10° NNE
USA 307 4.2 03:46:24 36° NE 03:46:24 36° NE 03:49:44 10° E
Cosmos 2184 Rocket 4.0 03:39:24 10° S 03:45:45 87° E 03:52:10 10° N
Cosmos 2278 Rocket 3.8 03:45:39 10° SSE 03:50:41 34° ESE 03:55:44 10° NE
USA 308 3.9 03:52:49 41° NE 03:52:49 41° NE 03:56:28 10° E
APEX 4.4 03:54:35 45° SW 03:56:46 80° WNW 04:03:53 10° NNE
COSMO-SKYMED 1 3.4 03:54:11 10° SSE 03:58:22 50° ENE 04:00:09 30° NNE
Cosmos 1844 Rocket 3.8 04:02:42 29° N 04:02:42 29° N 04:05:51 10° NNE
Atlas Centaur 2 4.3 04:00:45 19° SSW 04:01:50 20° SSW 04:06:34 10° SSE
Cosmos 1805 Rocket 4.1 03:57:34 10° S 04:01:56 59° E 04:06:20 10° NNE
COSMOS 2406 3.9 04:02:25 23° N 04:05:58 54° ENE 04:11:37 10° SE
deb Chang Zheng 4 3.7 04:01:45 10° NNE 04:06:08 75° ESE 04:10:28 10° S
Cosmos 1812 4.3 04:11:56 24° S 04:11:56 24° S 04:13:34 10° S
FALCON 9 DEB 3.6 04:16:39 59° ENE 04:16:39 59° ENE 04:19:41 10° ESE
SAR-Lupe-1 4.3 04:13:36 10° SSE 04:17:09 67° ENE 04:17:38 58° NNE
ATLAS 5 CENTAUR R/B 1.2 04:17:17 77° NW 04:17:17 77° NW 04:21:43 10° NE
USA 305 3.1 04:16:57 54° N 04:17:32 61° NNE 04:21:47 10° ESE
Cosmos 1689 Rocket 3.1 04:17:28 10° SSE 04:19:51 44° ESE 04:19:51 44° ESE
SKYMED 3 4.5 04:17:59 10° SSE 04:22:19 90° SW 04:24:25 31° NNW
Nadezhda 3 Rocket 3.9 04:17:08 10° N 04:23:24 79° W 04:29:35 10° S
MOS 1 Rocket 4.5 04:20:04 10° SE 04:24:51 46° ENE 04:29:54 10° N
USA 306 3.0 04:25:27 50° NNW 04:26:24 69° NE 04:30:41 10° ESE
Cosmos 1633 Rocket 4.2 04:26:01 10° SSE 04:30:13 45° E 04:34:26 10° NNE
Cosmos 1125 Rocket 3.8 04:26:41 10° S 04:31:51 69° ESE 04:37:02 10° NNE
Cosmos 1048 Rocket 3.9 04:28:12 20° NNW 04:31:53 86° ENE 04:37:03 10° SSE
ADEOS 3.8 04:29:10 10° N 04:34:07 44° WNW 04:39:02 10° SW
BREEZE-M DEB (TANK) 2.5 04:34:15 56° NNW 04:34:30 59° N 04:38:48 10° E
FENGYUN 3A 4.1 04:29:36 10° N 04:34:34 38° WNW 04:36:29 29° WSW
Meteor 1-27 Rocket 3.7 04:30:22 10° NNW 04:36:14 81° W 04:42:09 10° S
Cosmos 468 4.4 04:35:53 20° NNW 04:39:38 80° WSW 04:44:50 10° SSE
H-2A R/B 3.2 04:36:45 10° NNE 04:40:37 64° ESE 04:44:23 10° S
ATLAS 2AS CENTAUR R/B 4.1 04:39:48 21° NW 04:41:44 23° NNW 04:47:38 10° NNE
Cosmos 1356 3.2 04:40:03 10° SSW 04:43:25 67° W 04:46:50 10° N
SKYMED 2 3.7 04:42:14 10° S 04:46:26 49° W 04:48:45 24° NW
PSLV R/B 4.4 04:44:31 10° NNE 04:48:14 56° E 04:51:53 10° S
SJ-12 4.2 04:47:26 10° N 04:51:15 40° WNW 04:55:03 10° SW
Cosmos 2150 Rocket 4.0 04:46:15 10° SW 04:51:27 57° WNW 04:56:37 10° NNE
COSMOS 2455 3.5 04:49:17 25° W 04:51:49 34° NW 04:57:18 10° NNE
Cosmos 1707 Rocket 3.4 04:47:36 10° NNW 04:51:56 74° W 04:56:14 10° S
CZ-2C R/B 2.9 04:50:56 14° SW 04:52:37 19° S 04:55:00 10° SE
Cosmos 2154 Rocket 4.3 04:48:24 10° SSW 04:54:19 43° WNW 05:00:18 10° N
Cosmos 2298 Rocket 4.2 04:49:54 10° SW 04:55:01 50° WNW 05:00:11 10° N
PSLV R/B 4.0 04:52:38 10° S 04:56:38 52° W 04:59:50 15° NNW
ALOS 4.2 04:56:15 10° NNW 04:56:56 13° NNW 04:56:56 13° NNW
Sich 1 3.3 04:55:33 10° SSW 04:59:46 43° WNW 05:04:01 10° N
ERS-2 4.0 04:57:56 10° SW 04:59:08 15° SW 04:59:08 15° SW
ASTRO F (AKARI) 4.1 04:59:15 10° N 05:02:26 77° WNW 05:05:42 10° SSW
SL-8 Rocket 4.0 04:56:36 10° S 05:02:44 89° W 05:08:58 10° N
Cosmos 1833 Rocket 2.6 04:57:52 13° NNW 05:02:56 69° WSW 05:08:30 10° SSE
SL-24 DEB 4.2 05:01:56 10° S 05:06:42 69° W 05:11:29 10° N
Okean 1 4.1 05:03:56 10° N 05:07:56 55° E 05:11:54 10° SSE
Cosmos 2082 Rocket 2.4 05:02:34 10° NNW 05:08:18 75° ENE 05:14:01 10° SSE
SL-4 R/B 1.8 05:06:43 24° WNW 05:08:54 67° SW 05:12:29 10° SE
EXPRESS MD2 4.2 05:07:42 22° WNW 05:10:16 60° SSW 05:17:50 10° SE
USA 290 2.4 05:07:38 12° NNW 05:10:38 71° ENE 05:13:50 10° SSE
DMSP B5D1-3 4.5 05:05:53 10° S 05:11:02 78° WSW 05:16:14 10° NNW
Cosmos 1437 Rocket 4.1 05:12:48 18° W 05:12:48 18° W 05:15:18 10° SW
Cosmos 1602 3.8 05:09:22 10° S 05:13:18 81° E 05:17:14 10° N
CZ-4B R/B 4.2 05:09:39 10° NNE 05:14:56 50° E 05:20:16 10° S
Lacrosse 5 3.7 05:12:41 12° NW 05:15:32 18° N 05:18:55 10° NE
EO 1 Delta rocket 4.4 05:12:07 10° SSW 05:16:29 36° W 05:20:47 10° NNW
Cosmos 1470 Rocket 3.6 05:12:57 10° S 05:17:19 83° E 05:21:42 10° N
Cosmos 1818 3.6 05:12:42 10° SSW 05:18:07 89° ESE 05:23:37 10° NE
Meteor 1-25 Rocket 4.1 05:14:45 10° SSW 05:20:18 75° W 05:25:53 10° N
PAYLOAD B 4.4 05:15:13 10° NNE 05:20:45 79° ESE 05:26:15 10° SSW
Cosmos 2341 Rocket 4.1 05:14:56 10° SSW 05:20:56 50° WNW 05:27:01 10° N
Cosmos 1727 Rocket 4.3 05:16:18 10° N 05:22:39 73° E 05:28:59 10° SSE
ERBS 4.4 05:21:48 10° NNW 05:24:14 19° NNE 05:26:41 10° ENE
USA 307 3.5 05:22:34 16° WNW 05:25:45 44° SW 05:29:51 10° SSE
CZ-4B R/B 4.1 05:25:14 10° NNW 05:28:44 23° WNW 05:32:07 10° WSW
NOSS 2-1 (C) 2.8 05:26:16 10° SW 05:29:37 81° NW 05:33:03 10° NE
USA 308 3.6 05:28:59 14° WNW 05:32:24 39° SW 05:36:23 10° SSE
Cosmos 2278 Rocket 2.7 05:29:27 10° SW 05:34:41 38° WNW 05:39:57 10° NNE
COSMO-SKYMED 1 4.2 05:32:11 10° SW 05:34:49 16° W 05:37:21 10° NW
NOSS 2-1 (D) 2.8 05:31:48 10° SW 05:35:08 69° NW 05:38:34 10° NNE
CZ-4C R/B 4.1 05:32:41 10° NW 05:35:41 14° N 05:38:55 10° NNE
Okean O Rocket 1.8 05:34:11 10° NNE 05:38:39 81° ESE 05:43:07 10° SSW
Cosmos 1862 Rocket 3.9 05:35:01 10° NNW 05:39:14 45° W 05:43:23 10° SSW
Envisat 3.1 05:34:32 10° N 05:39:28 52° WNW 05:44:22 10° SSW
NOAA 6 4.1 05:37:55 10° N 05:42:55 55° WNW 05:47:53 10° SSW
YAOGAN 6 3.2 05:41:35 10° N 05:44:44 31° WNW 05:47:50 10° SW
Cosmos 1238 Rocket 3.5 05:43:19 10° SSE 05:46:07 42° E 05:49:00 10° NNE
Cosmos 1515 3.8 05:42:35 10° NNW 05:46:20 56° W 05:50:01 10° S
Cosmos 1933 Rocket 3.5 05:42:25 10° SSW 05:46:50 70° W 05:51:17 10° N
SMAP 3.0 05:43:24 10° N 05:48:03 70° WNW 05:52:40 10° SSW
Cosmos 1500 3.2 05:44:41 10° S 05:48:25 89° E 05:52:13 10° N
COSMOS 2406 4.4 05:45:24 10° NW 05:49:53 24° WSW 05:54:21 10° SSW
Cosmos 1943 Rocket 3.3 05:45:40 10° S 05:50:56 50° ESE 05:56:15 10° NE
BREEZE-M (TANK) 2.3 05:47:26 10° WSW 05:53:30 67° NNW 05:55:51 10° ENE
